User: anonymous   Login
Location: Theydon Bois
(51.6750°N, 0.1050°E)
Time: 06:58:46
(UTC+01:00)
Language:

Cosmos 1842 Rocket - Orbit

View from above orbital plane
View from above orbital plane
View from above satellite
View from above satellite

Ground track
Ground track

The orbit data is extracted from the following two-line orbital elements,

1 17912U 87038B   18112.53499547  .00000074  00000-0  62324-5 0  9998
2 17912  82.4991 120.1255 0018794 293.8800  66.0445 14.82972209673577
Epoch (UTC): 22 April 2018 12:50:23
Eccentricity: 0.0018794
inclination: 82.4991°
perigee height: 607 km
apogee height: 633 km
right ascension of ascending node: 120.1255°
argument of perigee: 293.8800°
revolutions per day: 14.82972209
mean anomaly at epoch: 66.0445°
orbit number at epoch: 67357

The dashed part of the orbit path shows where the satellite is in the earth's shadow,  

DLR